DELTA 1 DEB

Satellite information

Favourite Embed

Satellite Type and Status

DEBRISIN ORBIT

Key statistics

Satellite DELTA 1 DEB at a glance.

Uptime

18449

Days in orbit

Revolutions

≈ 13.6

Per day

Orbit

SSO

Sun Synchronous Orbit

Inclination

99.9

Latest

Satellite identification and parameters

Extended collection of information and parameters for DELTA 1 DEB.

Object identification

Identified? True

Debris? True

Object name: DELTA 1 DEB

International designator: 1975-052CU

Object number (NORAD): 21374

Object ID (CCSDS): 21374

Country: UNITED STATES OF AMERICA (US)

Current information (Y/N): Y

RCS size: SMALL

Orbital parameters

Period: 105.741 minutes

Inclination: 99.8836 deg

SMA: 7407.208 km

Apoapsis: 1219.035 km

Periapsis: 839.11 km

RAAN: 185.7114 deg

Eccentricy: 0.02564561

Argument of periapsis: 35.8901 deg

Mean anomaly: 87.7973 deg

Mean motion: 13.61823944 rev/day

Mean motion (dot): 0.00001061 rev/day2

B* drag term: 0.0011557472 1/REarth

Two-line elements (TLE)

Creation date: Dec. 14, 2025, 6:24 p.m.

Reference frame: TEME

Reference center: EARTH

Epoch: Dec. 14, 2025, 2:55 a.m. UTC

TLE line 0: 0 DELTA 1 DEB

TLE line 1: 1 21374U 75052CU 25348.12212312 .00001061 00000-0 11557-2 0 9991

TLE line 2: 2 21374 99.8836 185.7114 0256456 35.8901 87.7973 13.61823944708583

Live tracking on map

Real-time ground track for satellite DELTA 1 DEB.

In-orbit conjunctions

A list of the most updated potential collisions computed for object DELTA 1 DEB.

Target Orbit TCA Probability of collision Miss distance Type
THOR ABLESTAR DEB LEO 2025-07-19 02:35:29 0.0001344124 440.0 (m) DEBRIS
FENGYUN 1C DEB * SSO 2024-09-25 05:51:56 0.001745831 402.0 (m) DEBRIS
COSMOS 1275 DEB LEO 2024-08-19 13:56:59 0.000596398 84.0 (m) DEBRIS

Associated space launch

Experimental meteorological satellite

DELTA 1 DEB was lifted into orbit during the mission ‘Delta 2910 | Nimbus 6’, on board a Delta 2910 space rocket.

The launch took place on June 12, 1975, 8:12 a.m. from Space Launch Complex 2W.

For more information about the launch, click the button.

Launch to space Delta 2910 | Nimbus 6
Delta 2910 | Nimbus 6

Agency: N/A

Status: Launch Successful

Launch date: June 12, 1975, 8:12 a.m. UTC

Rocket: Delta 2910

Launch pad: Space Launch Complex 2W

Location: Vandenberg SFB, CA, USA

...

Latest news about this satellite

There are no fresh news available about this satellite. Check back as we update our databases every day.


Newsletter sign-up

Weekly statistics, charts and insights to help you stay on top of the space industry.